Theta_e
304 307 308 309 311 310 310 311 311 310 311 311 311 311 311 312 313 317 322 317 315 314 315 315 316 320 316 319 323 325 325 326 324 323 323 325 324 325 327 327 329 329 330 332 347
303 306 309 310 311 311 311 311 311 309 310 311 311 312 312 312 315 320 315 312 311 311 317 318 320 322 322 318 321 324 325 324 324 325 325 325 325 325 325 325 325 326 328 331 346
302 304 307 308 309 307 307 308 307 309 311 311 311 311 312 313 322 320 313 314 314 311 316 318 320 322 321 320 319 322 325 324 324 324 324 325 325 326 325 323 324 324 325 327 340
302 303 306 306 307 308 308 308 308 311 311 310 309 311 313 317 322 317 314 315 317 315 318 319 320 319 320 321 320 320 321 322 324 324 324 324 324 325 325 324 325 325 326 326 334
303 303 306 306 308 308 308 310 311 311 308 308 309 310 315 324 318 316 314 317 318 322 321 321 320 319 319 319 320 320 320 321 322 323 323 323 323 324 324 324 324 324 324 325 326
302 303 307 308 308 308 308 309 309 309 309 309 309 315 321 321 315 314 314 315 315 317 318 321 320 320 319 319 320 321 320 320 321 321 321 322 323 323 323 324 324 324 324 324 325
303 303 305 308 308 308 309 309 310 309 310 312 313 317 318 314 313 313 313 313 316 316 318 318 320 321 320 320 319 320 320 321 321 322 322 322 322 323 323 324 323 324 325 324 324
302 302 304 308 308 309 309 310 310 309 312 311 316 320 317 313 312 313 312 313 313 315 316 317 318 320 320 320 320 320 320 321 320 321 321 321 322 322 323 324 324 324 326 326 325
301 303 305 307 309 309 310 311 311 311 313 314 318 322 313 312 312 312 313 312 312 312 313 314 318 320 319 318 318 319 321 319 319 320 321 321 321 320 321 323 325 325 325 326 327
301 304 306 307 308 309 312 313 312 312 317 317 318 318 313 313 312 312 312 312 312 313 313 313 314 317 320 321 319 319 320 320 320 319 319 320 323 323 322 322 323 324 324 325 325
301 304 306 307 308 310 312 314 314 317 314 314 313 313 312 312 312 312 312 312 312 312 312 312 311 311 314 316 314 319 321 324 323 321 321 322 321 323 323 323 323 325 325 326 326
301 303 306 306 308 311 312 313 312 312 316 314 314 313 312 312 313 313 311 311 311 311 311 311 311 311 310 310 312 315 322 320 319 320 323 321 322 323 323 323 324 325 324 325 326
301 303 304 306 309 312 315 311 311 313 318 316 314 313 312 312 313 312 312 311 310 311 311 310 311 310 310 310 310 311 312 313 316 316 318 320 320 322 321 321 321 323 324 325 327
301 303 304 307 310 314 311 309 311 313 322 314 313 313 312 313 313 312 311 311 311 311 311 310 310 310 310 310 310 311 310 310 311 314 322 319 324 322 323 322 322 322 323 323 324
301 303 305 308 310 313 308 309 312 316 328 312 312 312 312 313 313 313 311 312 311 311 311 311 311 312 311 310 310 309 309 308 309 311 317 320 322 322 322 323 322 322 322 323 323
302 303 306 310 311 310 308 312 315 324 314 312 312 311 313 314 314 313 313 313 311 311 311 311 311 312 312 312 311 311 311 312 312 311 317 316 318 319 321 321 320 322 323 323 324
303 305 307 309 311 308 309 317 322 314 311 311 310 312 313 314 314 313 313 313 311 312 312 312 312 313 311 312 311 311 314 319 317 316 316 313 315 320 320 321 320 322 322 323 323
304 309 311 312 309 308 312 319 319 312 311 309 310 313 314 315 314 314 314 313 312 312 313 314 314 313 313 312 311 315 314 320 321 318 314 313 318 318 320 321 322 322 322 322 323
307 314 315 309 308 310 316 315 312 311 309 309 311 314 315 316 315 314 313 313 312 312 314 314 314 313 313 313 313 313 314 315 320 319 322 318 317 318 319 320 320 322 321 322 323
305 316 316 309 310 312 316 309 310 309 309 310 313 314 317 316 316 316 313 312 312 312 311 312 316 313 313 313 315 315 315 319 319 317 319 314 315 324 326 323 322 321 321 323 323
310 318 313 310 311 315 312 311 310 308 309 310 311 314 316 316 316 316 314 313 312 312 312 313 316 315 313 315 317 319 317 318 318 320 323 325 324 322 325 324 328 328 326 324 324
313 315 313 311 314 313 312 309 306 309 309 309 311 314 315 315 316 315 315 314 313 312 314 313 315 315 314 313 316 318 319 319 323 318 318 321 322 323 323 323 319 327 323 324 324
314 314 312 311 312 312 312 311 309 309 309 309 310 312 312 315 319 315 315 314 313 313 313 315 315 317 315 319 318 316 316 318 322 322 322 324 320 322 321 321 323 324 323 321 323
314 314 313 311 312 312 312 312 310 309 309 310 310 311 314 315 314 316 315 315 313 312 313 313 315 317 317 316 316 319 317 317 319 324 323 321 320 321 323 320 320 323 322 322 321
313 311 312 310 312 312 312 312 311 308 308 309 312 312 313 319 315 317 316 315 314 313 315 315 318 315 315 315 317 319 319 318 321 319 322 323 319 317 317 318 319 321 322 323 323
310 310 309 309 313 313 310 312 309 308 307 308 310 311 312 317 318 320 316 316 316 314 314 314 316 314 316 316 316 318 320 320 317 316 316 317 316 314 313 313 315 317 318 321 322
308 307 310 311 313 312 311 309 307 307 309 310 310 311 313 315 314 314 315 315 316 316 316 315 316 318 319 315 318 326 315 315 315 313 313 315 314 312 312 311 311 314 315 318 318
Wind_Speed
27 27 29 29 27 27 25 23 22 21 21 20 19 18 17 16 17 12 7 7 9 17 21 16 14 15 17 18 21 20 16 19 29 28 23 20 22 24 24 19 22 16 15 12 21
30 30 29 28 27 27 25 24 22 21 19 18 18 17 15 14 13 9 9 11 13 15 9 8 10 14 14 15 18 19 17 32 26 24 22 25 25 23 23 21 16 10 13 14 19
32 32 31 30 28 26 25 23 21 19 18 18 16 14 13 9 8 6 16 13 15 10 10 16 19 19 18 18 22 24 28 27 25 24 24 27 26 24 19 18 18 13 16 19 15
33 33 31 30 27 26 26 23 19 16 18 17 16 13 8 5 6 4 14 10 14 5 10 16 14 17 20 22 22 28 31 29 31 27 27 27 27 21 20 20 14 15 12 21 18
32 33 30 27 24 27 26 20 17 18 18 19 14 10 5 7 10 12 15 7 9 6 12 14 16 18 23 23 25 29 29 30 28 29 28 24 26 26 19 22 18 17 16 17 17
34 33 28 24 23 26 25 19 19 16 20 13 12 6 5 1 12 13 17 16 13 17 16 16 18 20 24 25 27 25 29 31 29 29 26 28 27 22 24 20 21 19 17 18 17
34 33 26 22 20 24 24 19 19 12 18 12 8 6 3 9 15 13 16 19 14 12 14 20 20 20 19 23 23 24 30 29 28 27 25 22 29 30 22 23 22 22 19 18 19
36 34 24 20 17 22 24 22 16 14 14 11 9 6 5 6 12 14 17 17 20 15 15 18 19 19 20 19 23 25 27 23 20 27 28 24 31 28 27 24 23 23 20 21 22
38 33 22 20 18 22 24 25 15 14 14 8 8 6 6 11 18 17 15 16 24 22 23 20 13 16 18 18 19 19 22 28 29 27 26 28 35 28 27 22 23 25 23 21 19
38 30 21 20 20 18 24 21 9 10 8 8 15 7 12 15 20 15 17 13 21 20 16 18 18 18 15 16 17 18 22 24 25 23 27 30 32 27 27 27 24 21 16 22 22
38 27 20 21 17 13 20 10 12 3 18 10 8 4 10 15 23 21 21 20 17 18 21 19 16 17 21 22 24 16 23 28 27 30 29 28 27 27 22 22 17 22 14 15 14
37 26 20 20 16 12 11 13 11 6 8 1 3 6 9 19 19 13 23 17 20 21 23 18 18 21 24 23 19 11 13 19 26 28 25 25 28 23 21 16 22 23 14 12 16
38 26 21 19 12 10 5 14 12 6 6 7 0 3 10 18 14 15 18 19 18 22 21 19 23 23 20 21 20 21 18 19 20 25 26 25 23 25 25 21 19 17 14 12 16
38 24 19 22 5 13 14 15 11 4 5 4 3 5 11 17 5 14 18 14 17 19 18 14 18 19 19 21 18 23 22 19 18 16 14 21 17 23 24 23 22 19 18 18 19
38 20 16 10 11 11 18 14 8 3 2 7 7 3 18 12 12 13 15 14 17 15 17 17 17 20 16 21 18 20 22 22 23 21 10 22 13 18 22 25 21 23 23 23 22
35 17 14 8 8 15 17 11 3 6 4 7 13 16 16 10 14 14 13 17 10 13 16 20 15 6 18 20 16 20 18 23 23 17 15 21 15 18 21 23 20 21 21 25 27
29 12 8 12 13 19 15 9 6 7 14 12 20 18 16 13 17 15 17 15 10 16 20 23 20 11 6 13 13 22 8 6 7 11 13 21 17 20 21 26 24 22 22 21 17
26 10 9 13 21 15 12 8 7 14 12 16 15 20 9 17 14 15 18 12 12 16 15 15 18 11 16 21 16 20 9 4 7 9 14 18 7 16 22 25 24 23 21 20 19
26 9 8 11 15 11 9 3 6 9 13 14 17 11 12 17 14 18 16 8 12 12 10 13 11 26 25 9 14 13 16 6 5 9 13 13 18 20 20 24 22 21 22 11 16
19 11 7 16 12 12 7 3 6 7 11 11 13 8 16 16 15 16 8 9 9 15 14 10 14 14 16 23 14 9 10 6 4 7 11 13 16 4 20 16 9 15 12 11 10
7 5 7 15 16 8 4 5 5 8 8 8 13 14 16 17 18 16 8 9 12 15 14 15 3 14 22 14 17 11 6 3 5 2 6 6 5 5 18 19 11 16 21 2 5
7 5 7 17 8 3 7 5 0 7 8 8 7 9 10 15 10 10 12 12 17 15 16 9 5 10 23 25 4 4 10 13 4 8 12 10 9 1 6 18 22 16 12 21 10
7 7 4 13 6 8 6 11 5 6 8 8 8 10 13 8 3 11 12 17 12 17 4 6 3 8 11 2 6 14 21 16 12 10 14 11 9 2 7 7 13 15 12 9 11
5 4 3 6 4 8 10 6 9 8 5 3 11 10 11 11 12 10 23 5 15 13 11 4 4 9 11 20 17 17 23 21 11 5 17 17 20 24 17 18 23 19 15 12 16
4 4 3 5 9 9 10 11 11 12 4 13 6 11 15 7 19 17 20 19 18 3 4 3 6 14 20 21 22 21 23 19 17 17 14 18 21 23 23 15 21 23 15 17 11
5 5 6 12 11 11 10 8 11 11 12 12 14 14 14 14 11 20 22 20 13 9 8 1 5 17 19 15 20 13 12 11 16 17 20 24 32 18 23 21 18 20 18 21 17
10 10 5 10 14 9 6 7 12 12 6 9 11 16 16 17 21 24 22 20 16 15 12 3 4 5 8 21 19 4 8 7 13 17 15 13 17 23 23 21 19 19 16 13 12
Wind_Direction
357 350 346 342 339 336 333 330 327 323 321 319 319 317 312 311 320 295 280 336 317 306 303 296 268 231 239 254 241 233 245 248 245 250 255 265 261 268 274 257 238 221 255 267 121
356 351 347 342 339 336 332 330 328 329 327 323 322 316 311 315 311 286 356 337 319 303 295 254 250 227 233 245 238 233 237 238 249 259 263 262 267 267 263 257 245 230 242 242 141
358 354 350 347 346 348 347 345 344 339 344 344 343 332 313 324 265 73 11 358 341 308 274 289 295 289 245 240 245 235 243 251 255 255 259 276 278 285 293 248 257 234 225 246 157
0 358 356 356 357 358 357 353 352 356 356 353 348 344 332 283 10 52 348 350 351 316 283 282 273 263 261 254 244 250 251 251 258 264 277 277 284 271 274 288 251 245 221 247 184
2 0 0 2 4 3 4 5 3 358 348 343 334 334 332 239 33 356 329 330 309 262 284 288 284 274 266 262 259 253 255 256 254 253 257 268 267 270 262 270 280 275 261 254 263
1 360 360 2 4 1 2 1 357 4 1 352 352 2 269 39 350 345 349 329 315 313 301 298 292 294 286 281 275 276 267 266 256 249 253 256 260 258 254 252 263 269 269 259 262
0 357 356 358 360 356 356 358 1 346 6 13 12 339 4 31 346 328 344 339 340 323 309 302 300 297 291 285 287 280 274 279 271 271 270 272 256 250 249 252 249 253 260 263 259
358 355 353 353 351 351 345 343 343 332 346 346 336 308 50 9 341 337 326 338 333 318 305 306 302 287 282 282 281 278 281 276 264 259 260 262 259 255 253 241 246 250 241 233 248
356 355 354 351 343 345 338 334 320 318 318 321 312 233 52 0 7 341 317 341 325 315 302 290 265 281 280 271 269 255 258 261 266 263 263 244 252 248 252 253 242 234 230 237 226
357 355 355 352 344 333 339 330 309 299 327 265 255 287 31 6 343 313 319 321 325 319 315 291 285 259 276 256 259 289 291 293 285 262 251 258 256 243 240 234 239 255 227 220 230
356 353 351 348 344 340 335 358 355 169 342 16 31 0 347 335 331 337 347 336 321 324 311 313 298 288 276 288 303 260 303 306 306 297 299 302 252 251 242 226 241 244 249 214 231
353 349 346 344 333 333 314 23 18 295 303 228 234 290 358 342 332 10 346 336 334 329 314 309 305 319 325 314 293 276 257 270 294 301 298 310 304 283 291 234 226 240 233 236 245
351 348 343 346 319 297 322 6 343 334 264 173 13 292 334 332 323 352 354 343 333 312 325 319 302 309 307 298 294 282 286 304 291 287 299 295 285 293 267 275 268 270 273 255 229
349 348 347 349 311 325 9 345 347 355 265 74 16 86 326 328 36 342 0 323 316 316 314 295 297 295 291 291 294 292 311 309 297 300 287 301 293 273 276 256 244 247 255 267 267
347 347 354 330 309 330 340 335 342 249 268 29 0 302 340 325 326 4 324 308 300 322 312 312 300 295 309 296 298 294 295 290 287 284 274 284 268 267 261 264 253 227 230 238 242
346 342 337 0 264 320 331 326 247 234 14 352 358 340 329 323 343 352 332 323 321 322 312 333 337 9 276 309 314 312 318 305 285 264 261 259 264 271 270 265 250 250 242 227 223
344 332 297 309 325 328 329 293 255 9 349 355 334 334 307 350 344 340 342 330 0 343 333 322 330 11 323 329 303 291 284 296 269 249 247 252 244 249 277 266 264 267 261 249 233
341 318 300 261 323 324 311 270 285 13 1 337 330 304 323 349 351 340 337 327 14 7 333 344 321 52 314 298 309 306 333 272 302 255 275 269 260 258 229 262 267 275 263 257 228
343 312 267 340 322 319 291 299 2 358 345 332 320 337 351 345 346 345 334 345 0 22 2 323 297 318 303 346 325 302 296 257 262 282 272 254 246 249 269 262 262 287 252 272 262
333 297 280 337 325 305 279 46 342 15 343 332 326 346 331 341 347 339 317 5 3 12 359 316 298 304 303 324 315 292 313 302 282 285 268 260 262 342 343 312 273 262 275 232 244
307 276 29 345 318 260 347 16 344 351 349 337 326 313 326 348 339 330 303 342 22 342 337 321 276 291 304 310 303 309 297 290 247 164 292 337 334 290 287 323 333 13 332 20 55
302 300 16 342 298 44 11 347 74 326 324 317 292 303 341 347 327 321 308 322 351 333 327 321 278 290 291 298 341 345 310 316 275 302 294 283 279 83 224 12 357 335 3 348 40
306 292 96 353 4 351 4 306 316 333 322 312 301 320 325 331 317 299 308 309 333 324 296 333 268 305 304 7 312 337 322 324 313 293 278 294 290 82 2 28 286 294 347 330 338
287 322 352 315 145 342 345 315 316 342 327 317 292 291 289 310 316 288 300 324 336 317 328 185 240 251 272 283 294 294 304 305 292 269 297 290 314 327 24 11 312 332 342 328 333
278 352 17 306 328 331 298 306 300 327 332 310 277 309 334 323 310 293 315 315 316 34 104 144 267 285 290 290 289 276 277 295 310 313 306 314 309 324 324 358 315 315 329 324 310
330 340 343 293 280 282 284 269 324 325 319 303 307 321 315 307 297 305 310 306 306 291 275 220 267 303 295 305 313 309 19 12 356 336 322 319 308 340 326 323 319 314 331 320 313
355 318 280 296 287 280 317 323 307 316 303 299 307 316 308 318 317 299 289 281 269 267 282 283 275 296 291 323 317 99 36 5 314 310 312 306 304 316 317 322 320 309 302 310 323